Погода в Уояне

Россия / Республика Бурятия     56°07′54″N   111°37′05″E
темп.,
°C
ветер,
м/с
пор.,
м/с
влажн.,
%
обл.,
%
осадки,
мм/ч
давл.,
гПа
погр.,
м
6 марта, сб
сб623:00−27зсз117954 0.0 103419
02:00−25ссз018377 0.0 103120
05:00−27ссз018182 0.0 102819
08:00−24юз018691 0.0 102720
11:00−20ю2295100 0.0 1024117
14:00−18ю2297100 0.2 1022187
17:00−17ююз1298100 0.1 102381
20:00−20зюз1287100 0.1 102521
7 марта, вс
вс723:00−20юз129195 0.0 102520
02:00−22з119079 0.0 102520
05:00−22зюз019269 0.0 102420
08:00−19ю119783 0.0 102340
11:00−16ю2297100 0.1 1019166
14:00−13ю3395100 0.1 1016224
17:00−13ююз2299100 0.1 1014126
20:00−15зюз2297100 0.1 101420
8 марта, пн
пн823:00−13юз229596 0.1 101422
02:00−13зюз129598 0.2 101321
05:00−13зюз3487100 0.2 101353
08:00−13з41084100 0.3 1015426
11:00−11з356852 0.1 10151046
14:00−11зсз696862 0.2 10171768
17:00−14сз467981 0.1 1019709
20:00−18сз448272 0.2 102529
9 марта, вт
вт923:00−20сз438125 0.0 102824
02:00−21сз227736 0.1 102920
05:00−23з11760 0.0 103020
08:00−22зсз11878 0.0 102920
11:00−17ю229199 0.0 1025249
14:00−15ю2286100 0.0 1020272
17:00−15ююз1286100 0.0 1018144
20:00−16зюз118791 0.0 102020
10 марта, ср
ср1023:00−17зюз228873 0.0 101920
02:00−16з229486 0.1 101920
05:00−19зсз228449 0.1 102120
08:00−19сз338434 0.1 102523
11:00−14юз127417 0.0 1026450
14:00−12ююз236830 0.0 1027869
17:00−12ю128531 0.0 1027108
20:00−18сз117823 0.0 103020